Bergman, AR

10:57 AM CDT on October 01, 2016 (GMT -0500)
Boone County

Weather History for KHRO - March, 2014

Change the Weather History Date:

Saturday, March 22, 2014

  Actual Average Record
Temperature  
Mean Temperature 51 °F 51 °F  
Max Temperature 60 °F 62 °F 90 °F (1995)
Min Temperature 41 °F 39 °F 16 °F (2002)
Degree Days  
Heating Degree Days 14 15  
Month to date heating degree days 450 390  
Since 1 July heating degree days 3985 3562  
Cooling Degree Days 0 0  
Month to date cooling degree days 0 0  
Year to date cooling degree days 0 0  
Moisture  
Dew Point 29 °F    
Average Humidity 43    
Maximum Humidity 62    
Minimum Humidity 24    
Precipitation  
Precipitation 0.03 in 0.13 in 2.30 in (1892)
Month to date precipitation 3.68 2.60  
Year to date precipitation 5.63 7.80  
Snow  
Snow 0.00 in 0.00 in 2.00 in (1955)
Month to date snowfall 10.0 2.0  
Since 1 July snowfall 25.8 11.2  
Snow Depth 0.00 in    
Sea Level Pressure  
Sea Level Pressure 30.12 in    
Wind  
Wind Speed 7 mph (North)    
Max Wind Speed 15 mph    
Max Gust Speed 18 mph    
Visibility 10 miles    
Events Rain    
T = Trace of Precipitation, MM = Missing Value Source: NWS Daily Summary

Daily Weather History Graph

Daily Weather History Graph

Search for Another Location

Airport or City:

Trip Planner

Search our weather history database for the weather conditions in past years. The results will help you decide how hot, cold, wet, or windy it might be!

Date:

Astronomy

Mar. 22, 2014 Rise Set
Actual Time 7:13 AM CDT 7:26 PM CDT
Civil Twilight 6:47 AM CDT 7:51 PM CDT
Nautical Twilight 6:17 AM CDT 8:21 PM CDT
Astronomical Twilight 5:47 AM CDT 8:52 PM CDT
Moon 12:37 AM CDT (3/22) 11:05 AM CDT (3/22)
Length of Visible Light 13h 04m
Length of Day
12h 12m
Waning Gibbous, 65% of the Moon is Illuminated
Mar 22
Waning Gibbous
Mar 23
Last Quarter
Mar 30
New
Apr 7
First Quarter
Apr 15
Full

Hourly Weather History & Observations

Time (CDT) Temp. Windchill Dew Point Humidity Pressure Visibility Wind Dir Wind Speed Gust Speed Precip Events Conditions
12:53 AM 55.9 °F - 33.1 °F 42% 30.01 in 10.0 mi North 6.9 mph - N/A   Mostly Cloudy
1:53 AM 53.1 °F - 32.0 °F 45% 30.02 in 10.0 mi NNW 4.6 mph - N/A   Mostly Cloudy
2:53 AM 50.0 °F - 30.9 °F 48% 30.03 in 10.0 mi NW 3.5 mph - N/A   Clear
3:53 AM 46.9 °F - 30.9 °F 54% 30.04 in 10.0 mi NNW 5.8 mph - N/A   Clear
4:53 AM 45.0 °F 42.6 °F 30.0 °F 56% 30.06 in 10.0 mi NNW 4.6 mph - N/A   Clear
5:53 AM 43.0 °F 40.3 °F 30.0 °F 60% 30.08 in 10.0 mi NNW 4.6 mph - N/A   Clear
6:53 AM 42.1 °F 40.2 °F 28.9 °F 60% 30.11 in 10.0 mi North 3.5 mph - N/A   Clear
7:53 AM 42.1 °F 37.7 °F 30.0 °F 62% 30.15 in 10.0 mi NW 6.9 mph - N/A   Clear
8:53 AM 44.1 °F 39.0 °F 30.9 °F 60% 30.17 in 10.0 mi North 9.2 mph - N/A   Clear
9:53 AM 46.9 °F - 32.0 °F 56% 30.19 in 10.0 mi North 9.2 mph - N/A   Clear
10:53 AM 50.0 °F - 30.0 °F 46% 30.19 in 10.0 mi Variable 5.8 mph - N/A   Clear
11:53 AM 52.0 °F - 28.9 °F 41% 30.17 in 10.0 mi North 10.4 mph 16.1 mph N/A   Clear
12:53 PM 54.0 °F - 28.9 °F 38% 30.16 in 10.0 mi North 10.4 mph - N/A   Clear
1:53 PM 55.9 °F - 27.0 °F 33% 30.13 in 10.0 mi North 10.4 mph - N/A   Clear
2:53 PM 57.9 °F - 25.0 °F 28% 30.12 in 10.0 mi NNE 6.9 mph - N/A   Clear
3:53 PM 59.0 °F - 23.0 °F 25% 30.10 in 10.0 mi Variable 5.8 mph - N/A   Partly Cloudy
4:53 PM 57.0 °F - 21.0 °F 25% 30.09 in 10.0 mi North 8.1 mph 16.1 mph N/A   Clear
5:53 PM 55.9 °F - 21.9 °F 27% 30.10 in 10.0 mi NE 10.4 mph - N/A   Overcast
6:53 PM 54.0 °F - 24.1 °F 31% 30.11 in 10.0 mi NE 6.9 mph - N/A   Overcast
7:53 PM 48.9 °F - 34.0 °F 56% 30.12 in 10.0 mi ENE 6.9 mph - 0.01 in   Overcast
8:53 PM 48.0 °F - 33.1 °F 56% 30.15 in 10.0 mi NNE 6.9 mph - 0.01 in   Overcast
9:53 PM 46.9 °F - 30.0 °F 52% 30.17 in 10.0 mi North 10.4 mph - N/A   Overcast
10:53 PM 46.0 °F 42.5 °F 28.0 °F 50% 30.20 in 10.0 mi North 6.9 mph - 0.00 in Rain Light Rain
11:53 PM 45.0 °F 39.3 °F 26.1 °F 48% 30.21 in 10.0 mi North 11.5 mph - N/A   Overcast